Weather History for KALO - September, 2013

Change the Weather History Date:

Wednesday, September 18, 2013

  Actual Average Record
Temperature  
Mean Temperature 76 °F 62 °F  
Max Temperature 89 °F 75 °F 93 °F (1955)
Min Temperature 63 °F 50 °F 28 °F (1929)
Degree Days  
Heating Degree Days 0 5  
Month to date heating degree days 48 52  
Since 1 July heating degree days 68 72  
Cooling Degree Days 11 2  
Month to date cooling degree days 110 62  
Year to date cooling degree days 806 774  
Growing Degree Days 26 (Base 50)    
Moisture  
Dew Point 65 °F    
Average Humidity 75    
Maximum Humidity 100    
Minimum Humidity 50    
Precipitation  
Precipitation 0.05 in 0.09 in 1.02 in (1960)
Month to date precipitation 0.51 1.63  
Year to date precipitation 34.80 27.91  
Snow  
Snow 0.00 in 0.00 in - ()
Month to date snowfall 0.0 0.0  
Since 1 July snowfall 0.0 0.0  
Since 1 September snowfall 0.0 0.0  
Snow Depth 0.00 in    
Sea Level Pressure  
Sea Level Pressure 29.88 in    
Wind  
Wind Speed 11 mph (South)    
Max Wind Speed 21 mph    
Max Gust Speed 25 mph    
Visibility 6 miles    
Events Rain , Thunderstorm    
T = Trace of Precipitation, MM = Missing Value Source: NWS Daily Summary

Daily Weather History Graph

Daily Weather History Graph

Search for Another Location

Airport or City:

Trip Planner

Search our weather history database for the weather conditions in past years. The results will help you decide how hot, cold, wet, or windy it might be!

Date:

Astronomy

Sep. 18, 2013 Rise Set
Actual Time 6:52 AM CDT 7:13 PM CDT
Civil Twilight 6:24 AM CDT 7:41 PM CDT
Nautical Twilight 5:51 AM CDT 8:14 PM CDT
Astronomical Twilight 5:17 AM CDT 8:48 PM CDT
Moon 6:36 PM CDT (9/18) 5:55 AM CDT (9/18)
Length of Visible Light 13h 16m
Length of Day
12h 20m
Waxing Gibbous, 99% of the Moon is Illuminated
Sep 18
Waxing Gibbous
Sep 19
Full
Sep 26
Last Quarter
Oct 4
New
Oct 11
First Quarter

Hourly Weather History & Observations

Time (CDT) Temp. Heat Index Dew Point Humidity Pressure Visibility Wind Dir Wind Speed Gust Speed Precip Events Conditions
12:13 AM 64.4 °F - 60.8 °F 88% 30.02 in 7.0 mi South 13.8 mph - N/A   Overcast
12:54 AM 63.0 °F - 61.0 °F 93% 30.01 in 6.0 mi South 10.4 mph - N/A   Overcast
1:54 AM 63.0 °F - 61.0 °F 93% 30.00 in 5.0 mi South 11.5 mph - N/A   Overcast
2:54 AM 63.0 °F - 62.1 °F 97% 29.98 in 4.0 mi South 11.5 mph - 0.00 in   Overcast
3:54 AM 63.0 °F - 62.1 °F 97% 29.95 in 5.0 mi South 10.4 mph - N/A   Overcast
4:54 AM 64.0 °F - 62.1 °F 93% 29.93 in 6.0 mi SSE 9.2 mph - N/A   Overcast
5:54 AM 64.0 °F - 62.1 °F 93% 29.93 in 5.0 mi South 11.5 mph - N/A   Overcast
6:54 AM 64.0 °F - 63.0 °F 96% 29.93 in 4.0 mi SSE 9.2 mph - N/A   Overcast
7:54 AM 64.0 °F - 63.0 °F 96% 29.91 in 4.0 mi SE 6.9 mph - N/A   Overcast
8:10 AM 64.4 °F - 62.6 °F 94% 29.92 in 4.0 mi South 9.2 mph - N/A Thunderstorm Overcast
8:25 AM 64.4 °F - 62.6 °F 94% 29.91 in 4.0 mi SSE 11.5 mph - 0.00 in Rain Light Rain
8:54 AM 64.0 °F - 63.0 °F 96% 29.91 in 3.0 mi South 12.7 mph - 0.01 in Rain Light Rain
9:10 AM 64.4 °F - 62.6 °F 94% 29.91 in 3.0 mi South 12.7 mph - 0.02 in Rain Light Rain
9:32 AM 64.4 °F - 62.6 °F 94% 29.91 in 2.5 mi South 10.4 mph - 0.03 in Rain Light Rain
9:50 AM 64.4 °F - 62.6 °F 94% 29.92 in 2.5 mi South 9.2 mph - 0.04 in Rain Light Rain
9:54 AM 64.0 °F - 63.0 °F 96% 29.91 in 2.5 mi South 9.2 mph - 0.04 in Rain Light Rain
10:54 AM 64.9 °F - 64.0 °F 97% 29.90 in 1.8 mi South 10.4 mph - 0.00 in   Overcast
11:54 AM 66.0 °F - 64.9 °F 96% 29.88 in 1.8 mi SSE 12.7 mph - N/A   Overcast
12:03 PM 66.2 °F - 64.4 °F 94% 29.89 in 2.0 mi SSE 10.4 mph - N/A   Overcast
12:26 PM 68.0 °F - 66.2 °F 94% 29.88 in 3.0 mi SE 8.1 mph - N/A   Overcast
12:54 PM 72.0 °F - 66.9 °F 84% 29.86 in 4.0 mi SE 9.2 mph - N/A   Haze
1:27 PM 77.0 °F - 69.8 °F 78% 29.86 in 6.0 mi SE 12.7 mph - N/A   Haze
1:34 PM 78.8 °F - 69.8 °F 74% 29.85 in 7.0 mi SE 15.0 mph - N/A   Partly Cloudy
1:54 PM 80.1 °F 82.9 °F 69.1 °F 69% 29.82 in 9.0 mi SSE 16.1 mph - N/A   Clear
2:54 PM 86.0 °F 90.1 °F 69.1 °F 57% 29.79 in 10.0 mi South 13.8 mph 21.9 mph N/A   Clear
3:54 PM 88.0 °F 91.4 °F 68.0 °F 51% 29.77 in 10.0 mi South 13.8 mph - N/A   Clear
4:54 PM 88.0 °F 90.7 °F 66.9 °F 49% 29.75 in 10.0 mi South 16.1 mph 23.0 mph N/A   Partly Cloudy
5:54 PM 87.1 °F 89.2 °F 66.0 °F 49% 29.75 in 10.0 mi South 12.7 mph - N/A   Clear
6:54 PM 82.9 °F 85.0 °F 66.0 °F 56% 29.75 in 10.0 mi South 10.4 mph - N/A   Partly Cloudy
7:54 PM 80.1 °F 82.3 °F 66.9 °F 64% 29.78 in 10.0 mi South 6.9 mph - N/A   Partly Cloudy
8:54 PM 79.0 °F - 66.9 °F 66% 29.79 in 10.0 mi SSE 9.2 mph - N/A   Overcast
9:54 PM 77.0 °F - 66.9 °F 71% 29.79 in 10.0 mi SSE 11.5 mph - N/A   Partly Cloudy
10:54 PM 75.9 °F - 66.9 °F 74% 29.80 in 10.0 mi South 11.5 mph - N/A   Partly Cloudy
11:54 PM 75.0 °F - 66.9 °F 76% 29.79 in 10.0 mi South 11.5 mph - N/A   Clear